Date String (YYYY-MM-DD hh:mm:ss) UTC,Instrument flags,Ambient pressure (hPa),Sample flow (lpm),Bypass flow (lpm),Sample temperature (°C),Ambient temperature (°C),ASC tube jacket temperature (°C),LED temperature (°C),Box temperature (°C),Sample RH (%),Mass concentration (μg/m³),Mass concentration (μg/m³)
DateTimeUTC,F1_M11,P_M11,Q1_M11,Q2_M11,T1_M11,T2_M11,T3_M11,T4_M11,T5_M11,U1_M11,X0_M11,X2_M11
2021-08-16 10:00:00,,0828.4,4.99,0.00,29.9,29.0,00.0,38.9,31.7,20.0,0014.97,0009.92
2021-08-16 10:01:00,,0828.5,5.00,0.00,30.0,29.0,00.0,38.9,31.8,20.4,0014.68,0009.94
2021-08-16 10:02:00,,0828.4,5.00,0.00,30.0,29.0,00.0,39.0,31.7,20.2,0014.05,0009.96
2021-08-16 10:03:00,,0828.4,5.00,0.00,30.0,28.2,00.0,39.0,31.5,20.2,0013.26,0009.94
2021-08-16 10:04:00,,0828.4,5.00,0.00,29.8,26.4,00.0,38.9,31.1,20.3,0013.30,0009.96
2021-08-16 10:05:00,,0828.4,5.00,0.00,29.7,26.3,00.0,38.9,31.1,20.4,0013.40,0009.97
2021-08-16 10:06:00,,0828.4,5.01,0.00,29.6,26.6,00.0,38.9,31.0,20.5,0013.93,0009.95
2021-08-16 10:07:00,,0828.4,5.00,0.00,29.6,27.0,00.0,38.8,31.1,20.5,0015.46,0009.98
2021-08-16 10:08:00,,0828.4,5.00,0.00,29.5,27.3,00.0,38.8,31.1,20.5,0016.31,0009.98
2021-08-16 10:09:00,,0828.5,4.99,0.00,29.5,27.6,00.0,38.8,31.2,20.5,0016.49,0009.99
2021-08-16 10:10:00,,0828.5,5.00,0.00,29.6,27.8,00.0,38.8,31.2,20.5,0016.46,0010.01
2021-08-16 10:11:00,,0828.4,5.00,0.00,29.6,28.0,00.0,38.8,31.3,20.5,0016.35,0010.01
2021-08-16 10:12:00,,0828.4,4.99,0.00,29.6,28.1,00.0,38.7,31.3,20.5,0016.07,0009.99
2021-08-16 10:13:00,,0828.4,5.01,0.00,29.6,28.3,00.0,38.7,31.4,20.4,0016.11,0010.01
2021-08-16 10:14:00,,0828.4,5.00,0.00,29.6,28.4,00.0,38.7,31.4,20.4,0016.47,0010.06
2021-08-16 10:15:00,,0828.4,5.00,0.00,29.7,28.4,00.0,38.7,31.4,20.3,0017.23,0010.07
2021-08-16 10:16:00,,0828.3,5.01,0.00,29.7,28.5,00.0,38.8,31.4,20.3,0017.84,0010.05
2021-08-16 10:17:00,,0828.4,4.99,0.00,29.7,28.6,00.0,38.8,31.4,20.4,0017.85,0010.07
2021-08-16 10:18:00,,0828.3,5.00,0.00,29.7,28.6,00.0,38.8,31.5,20.4,0016.36,0010.03
2021-08-16 10:19:00,,0828.4,5.01,0.00,29.7,28.7,00.0,38.8,31.5,20.4,0015.68,0010.02
2021-08-16 10:20:00,,0828.3,5.00,0.00,29.8,28.7,00.0,38.8,31.5,20.4,0015.46,0010.02
2021-08-16 10:21:00,,0828.3,5.00,0.00,29.8,28.7,00.0,38.8,31.5,20.3,0015.30,0009.97
2021-08-16 10:22:00,,0828.3,5.00,0.00,29.8,28.8,00.0,38.8,31.6,20.3,0015.24,0009.93
2021-08-16 10:23:00,,0828.3,5.00,0.00,29.8,28.8,00.0,38.8,31.6,20.2,0015.37,0009.95
2021-08-16 10:24:00,,0828.3,5.01,0.00,29.9,28.9,00.0,38.9,31.7,20.2,0015.41,0009.94
2021-08-16 10:25:00,,0828.3,5.00,0.00,29.9,28.9,00.0,38.9,31.7,20.1,0015.12,0009.89
2021-08-16 10:26:00,,0828.4,4.99,0.00,29.9,28.9,00.0,38.9,31.7,20.1,0014.53,0009.92
2021-08-16 10:27:00,,0828.4,5.01,0.00,29.9,28.9,00.0,38.9,31.7,20.1,0013.96,0009.91
2021-08-16 10:28:00,,0828.4,5.00,0.00,29.9,29.0,00.0,38.9,31.7,20.1,0013.57,0009.90
2021-08-16 10:29:00,,0828.3,4.99,0.00,30.0,29.0,00.0,39.0,31.7,20.1,0013.75,0009.93
2021-08-16 10:30:00,,0828.3,5.01,0.00,30.0,29.0,00.0,39.0,31.8,20.1,0013.64,0009.93
2021-08-16 10:31:00,,0828.4,4.99,0.00,30.0,29.0,00.0,39.0,31.8,20.1,0013.82,0009.94
2021-08-16 10:32:00,,0828.4,5.00,0.00,30.0,29.1,00.0,39.0,31.8,20.0,0013.94,0009.96
2021-08-16 10:33:00,,0828.4,5.01,0.00,30.0,28.9,00.0,39.0,31.8,20.0,0014.08,0010.01
2021-08-16 10:34:00,,0828.4,5.01,0.00,29.9,27.1,00.0,39.0,31.2,20.0,0014.64,0010.01
2021-08-16 10:35:00,,0828.3,5.00,0.00,29.8,26.3,00.0,39.0,31.0,20.3,0014.84,0009.99
2021-08-16 10:36:00,,0828.3,5.00,0.00,29.7,26.5,00.0,38.9,31.1,20.5,0014.74,0009.96
2021-08-16 10:37:00,,0828.3,5.00,0.00,29.6,26.9,00.0,38.9,31.1,20.6,0014.62,0009.90
2021-08-16 10:38:00,,0828.4,5.00,0.00,29.6,27.2,00.0,38.9,31.1,20.7,0014.45,0009.93
2021-08-16 10:39:00,,0828.3,4.99,0.00,29.6,27.5,00.0,38.8,31.2,20.7,0014.32,0009.91
2021-08-16 10:40:00,,0828.3,5.00,0.00,29.6,27.8,00.0,38.8,31.3,20.7,0014.19,0009.91
2021-08-16 10:41:00,,0828.4,5.01,0.00,29.6,28.0,00.0,38.8,31.3,20.7,0014.71,0009.93
2021-08-16 10:42:00,,0828.3,4.99,0.00,29.6,28.1,00.0,38.8,31.3,20.7,0015.54,0009.92
2021-08-16 10:43:00,,0828.3,5.01,0.00,29.7,28.3,00.0,38.8,31.4,20.6,0015.50,0009.91
2021-08-16 10:44:00,,0828.3,4.99,0.00,29.7,28.4,00.0,38.8,31.4,20.6,0015.46,0009.87
2021-08-16 10:45:00,,0828.3,5.00,0.00,29.7,28.5,00.0,38.8,31.4,20.5,0015.23,0009.86
2021-08-16 10:46:00,,0828.3,5.01,0.00,29.7,28.5,00.0,38.8,31.5,20.5,0015.31,0009.86
2021-08-16 10:47:00,,0828.3,4.99,0.00,29.7,28.6,00.0,38.8,31.5,20.5,0015.31,0009.90
2021-08-16 10:48:00,,0828.3,5.01,0.00,29.8,28.7,00.0,38.8,31.5,20.4,0015.36,0009.93
2021-08-16 10:49:00,,0828.2,4.99,0.00,29.8,28.7,00.0,38.8,31.5,20.4,0015.36,0009.91
2021-08-16 10:50:00,,0828.3,5.01,0.00,29.8,28.7,00.0,38.9,31.6,20.4,0015.36,0009.91
2021-08-16 10:51:00,,0828.3,4.99,0.00,29.8,28.8,00.0,38.9,31.6,20.3,0016.03,0009.87
2021-08-16 10:52:00,,0828.3,5.01,0.00,29.8,28.8,00.0,38.9,31.6,20.4,0015.50,0009.83
2021-08-16 10:53:00,,0828.3,5.00,0.00,29.9,28.8,00.0,38.9,31.7,20.3,0015.04,0009.83
2021-08-16 10:54:00,,0828.3,5.00,0.00,29.9,28.9,00.0,38.9,31.7,20.3,0015.03,0009.83
2021-08-16 10:55:00,,0828.2,5.00,0.00,29.9,28.9,00.0,38.9,31.7,20.3,0014.89,0009.79
2021-08-16 10:56:00,,0828.3,5.00,0.00,29.9,28.9,00.0,38.9,31.7,20.3,0014.39,0009.76
2021-08-16 10:57:00,,0828.2,5.01,0.00,30.0,28.9,00.0,39.0,31.7,20.3,0014.24,0009.73
2021-08-16 10:58:00,,0828.3,4.98,0.00,30.0,29.0,00.0,39.0,31.7,20.3,0014.42,0009.73
2021-08-16 10:59:00,,0828.2,5.01,0.00,30.0,29.0,00.0,39.0,31.7,20.3,0014.70,0009.68
